Torna al catalogo

BREEZE-M DEB

AttivoHEO
NORAD 38651·DEBRIS·🇷🇺 Russia

Lanciato Mar 14, 2008 da Baikonur Cosmodrome

Loading…

Prossimi Passaggi (prossime 24 ore)

TLE

AggiornatoSource: Space-Track

Epoca: Sep 14, 2026, 14:19 UTC

1 38651U 08011DA  26257.59690764 -.00000107  00000-0 -16914-3 0  9995
2 38651  49.2717  14.6390 6369358 219.1201  74.6151  3.06140160177611

Traccia BREEZE-M DEB in tempo reale con AllMySat

Download on the App Store